Regional Weather Roundup
Issued by NWS

Home | Current Version | Previous Version | Graphics & Text | Print | Product List | Glossary On
Versions: 1 2 3 4 5 6 7 8 9 10 11 12 13 14 15 16 17 18 19 20 21 22 23 24 25 26 27 28 29 30 31 32 33 34 35 36 37 38 39 40 41 42 43 44 45 46 47 48 49 50
000
ASUS45 KSLC 270610
RWRUT

UTAH REGIONAL WEATHER ROUNDUP
NATIONAL WEATHER SERVICE SALT LAKE CITY UT
1200 AM MDT FRI MAY 27 2016

UTZ001>011-023>025-270700-

NORTHERN UTAH

CITY           SKY/WX    TMP DP  RH WIND       PRES   REMARKS
BRIGHAM CITY     N/A     54  43  66 CALM      29.95F
HILL AFB       MOCLDY    52  39  62 E13       29.96S
LOGAN          MOCLDY    51  44  77 SW7       29.96S
OGDEN          PTCLDY    53  41  63 S7        29.95S
PROVO AIRPORT  CLEAR     50  36  57 E6        29.98S
SALT LAKE CITY PTCLDY    57  39  51 S7        29.95S
VERNAL         CLOUDY    55  34  45 S5        29.92F
WENDOVER       CLEAR     61  36  39 NW14G21   29.98S
HEBER CITY     PTCLDY    39  34  81 E3        30.02S
WEST JORDAN    CLEAR     54  39  58 CALM      29.98S

$$

UTZ012>022-026-027-270700-

SOUTHERN/CENTRAL UTAH

CITY           SKY/WX    TMP DP  RH WIND       PRES   REMARKS
BLANDING       MOCLDY    51  34  52 W9        30.03S
BRYCE CANYON   PTCLDY    38  32  79 NW7       30.10S WCI  33
CEDAR CITY     CLEAR     47  35  63 S5        30.02F
DELTA          PTCLDY    50  37  62 SE7       29.98F
HANKSVILLE     PTCLDY    54  32  43 W7        29.95S
MILFORD        PTCLDY    48  41  76 S5        30.00S
MOAB/CYNLANDS  MOCLDY    55  32  41 W8        29.90S
PRICE          CLEAR     51  31  46 NW14      29.97F
ST GEORGE      PTCLDY    64  37  36 E8        29.94S
KANAB          CLEAR     46  37  71 CALM      30.05R

$$

REGIONAL REPORTS     COLORADO/ARIZONA

CITY           SKY/WX    TMP DP  RH WIND       PRES   REMARKS
CRAIG, CO      CLOUDY    49  38  65 W7        29.96S
GRAND JUNCTION CLOUDY    53  36  52 W3        29.91S
RIFLE          CLOUDY    51  36  56 VRB3      29.94S
MONTROSE       CLOUDY    48  39  71 SE17      29.98F
CORTEZ         CLOUDY    44  35  70 SW3       29.98S
PAGE, AZ       CLOUDY    62  35  36 SW7       29.95F
GRAND CANYON   CLEAR     35  26  69 CALM      30.09S
KINGMAN        CLEAR     62  28  27 S12       29.94F
FLAGSTAFF      CLEAR     36  28  73 CALM      30.10S

$$

REGIONAL REPORTS    NEVADA/IDAHO/WYOMING

CITY           SKY/WX    TMP DP  RH WIND       PRES   REMARKS
LAS VEGAS, NV  PTCLDY    78  31  17 SW6       29.81F
ELY            PTCLDY    45  33  63 NW5       30.07F
ELKO           PTCLDY    48  41  76 CALM      30.03F
POCATELLO, ID  CLEAR     53  38  56 SW12      29.95S
BURLEY         CLEAR     52  39  61 SW8       29.94S
EVANSTON, WY   CLOUDY    42  34  73 S7        30.05S
ROCK SPRINGS   LGT RAIN  45  40  82 NE9       30.02S
KEMMERER         N/A     41  34  75 NW8       30.04S

$$



USA.gov is the U.S. government's official web portal to all federal, state and local government web resources and services.